Snowfall_Accumulation
0.0 0.0 0.0 0.0 0.0 0.0 0.0 0.0 0.0 0.0 0.0 0.0 0.0 0.0 0.0 0.0 0.0 0.0 0.0 0.0 0.0 0.0 0.0 0.0 0.0 0.0 0.0 0.0 0.0 0.0 0.0 0.0 0.0 0.0 0.0 0.0 0.0 0.0 0.0 0.0 0.0 0.0 0.0 0.0 0.0 0.0 0.0 0.0 0.0
0.0 0.0 0.0 0.0 0.0 0.8 0.0 0.0 0.0 0.0 0.0 0.0 0.0 0.0 0.0 0.0 0.0 0.0 0.0 0.0 0.0 0.0 0.0 0.0 0.0 0.0 0.0 0.0 0.0 0.0 0.0 0.0 0.0 0.0 0.0 0.0 0.0 0.0 0.0 0.0 0.0 0.0 0.0 0.0 0.0 0.0 0.0 0.0 0.0
0.0 0.0 0.0 0.0 0.0 0.4 0.0 0.0 0.0 0.0 0.0 0.0 0.0 0.0 0.0 0.0 0.0 0.0 0.0 0.0 0.0 0.0 0.0 0.0 0.0 0.0 0.0 0.0 0.0 0.0 0.0 0.0 0.0 0.0 0.0 0.0 0.0 0.0 0.0 0.0 0.0 0.0 0.0 0.0 0.0 0.0 0.0 0.0 0.0
0.0 0.0 0.0 0.0 0.2 0.0 0.0 0.0 0.0 0.0 0.0 0.0 0.0 0.0 0.0 0.0 0.0 0.0 0.0 0.0 0.0 0.0 0.0 0.0 0.0 0.0 0.0 0.0 0.0 0.0 0.0 0.0 0.0 0.0 0.0 0.0 0.0 0.0 0.0 0.0 0.0 0.0 0.0 0.0 0.0 0.0 0.0 0.0 0.0
0.0 0.0 0.0 0.4 0.1 0.0 0.0 0.0 0.0 0.0 0.0 0.0 0.0 0.0 0.0 0.0 0.0 0.0 0.0 0.0 0.0 0.0 0.0 0.0 0.0 0.0 0.0 0.0 0.0 0.0 0.0 0.0 0.0 0.0 0.0 0.0 0.0 0.0 0.0 0.0 0.0 0.0 0.0 0.0 0.0 0.0 0.0 0.0 0.0
0.0 0.0 0.6 1.7 0.2 0.0 0.0 0.0 0.0 0.0 0.0 0.0 0.0 0.0 0.0 0.0 0.0 0.0 0.0 0.0 0.0 0.0 0.0 0.0 0.0 0.0 0.0 0.0 0.0 0.0 0.0 0.0 0.0 0.0 0.0 0.0 0.0 0.0 0.0 0.0 0.0 0.0 0.0 0.0 0.0 0.0 0.0 0.0 0.0
0.0 0.1 1.3 0.8 0.3 0.0 0.0 0.0 0.0 0.0 0.0 0.0 0.0 0.0 0.0 0.0 0.0 0.0 0.0 0.0 0.0 0.0 0.0 0.0 0.0 0.0 0.0 0.0 0.0 0.0 0.0 0.0 0.0 0.0 0.0 0.0 0.0 0.0 0.0 0.0 0.0 0.0 0.0 0.0 0.0 0.0 0.0 0.0 0.0
0.0 0.1 1.1 0.6 0.4 0.1 0.0 0.0 0.0 0.0 0.0 0.0 0.0 0.0 0.0 0.0 0.0 0.0 0.0 0.0 0.0 0.0 0.0 0.0 0.0 0.0 0.0 0.0 0.0 0.0 0.0 0.0 0.0 0.0 0.0 0.0 0.0 0.0 0.0 0.0 0.0 0.0 0.0 0.0 0.0 0.0 0.0 0.0 0.0
0.0 0.5 2.8 0.9 0.3 0.1 0.1 0.0 0.0 0.0 0.0 0.1 0.0 0.0 0.0 0.0 0.0 0.0 0.0 0.0 0.0 0.0 0.0 0.0 0.0 0.0 0.0 0.0 0.0 0.0 0.0 0.0 0.0 0.0 0.0 0.0 0.0 0.0 0.0 0.0 0.0 0.0 0.0 0.0 0.0 0.0 0.0 0.0 0.0
0.1 2.2 1.0 0.1 0.0 0.1 0.1 0.1 0.0 0.0 0.0 0.1 0.0 0.0 0.0 0.0 0.0 0.0 0.0 0.0 0.0 0.0 0.0 0.0 0.0 0.0 0.0 0.0 0.0 0.0 0.0 0.0 0.0 0.0 0.0 0.0 0.0 0.0 0.0 0.0 0.0 0.0 0.0 0.0 0.0 0.0 0.0 0.0 0.0
0.4 0.6 0.1 0.2 0.1 0.1 0.1 0.2 0.1 0.0 0.1 0.2 0.2 0.0 0.0 0.0 0.0 0.0 0.0 0.0 0.0 0.0 0.0 0.0 0.0 0.0 0.0 0.0 0.0 0.0 0.0 0.0 0.0 0.0 0.0 0.0 0.0 0.0 0.0 0.0 0.0 0.0 0.0 0.0 0.0 0.0 0.0 0.0 0.0
0.4 0.4 0.1 0.2 0.2 0.1 0.1 0.1 0.2 0.1 0.1 0.2 0.1 0.0 0.0 0.0 0.0 0.0 0.0 0.0 0.0 0.0 0.0 0.0 0.0 0.0 0.0 0.0 0.0 0.0 0.0 0.0 0.0 0.0 0.0 0.0 0.0 0.0 0.0 0.0 0.0 0.0 0.0 0.0 0.0 0.0 0.0 0.0 0.0
0.5 0.3 0.1 0.1 0.2 0.1 0.0 0.1 0.1 0.1 0.0 0.0 0.1 0.1 0.0 0.0 0.0 0.0 0.0 0.0 0.0 0.0 0.0 0.0 0.0 0.0 0.0 0.0 0.0 0.0 0.0 0.0 0.0 0.0 0.0 0.0 0.0 0.0 0.0 0.0 0.0 0.0 0.0 0.0 0.0 0.0 0.0 0.0 0.0
0.6 0.5 0.1 0.1 0.3 0.2 0.3 0.1 0.1 0.1 0.0 0.0 0.1 0.1 0.1 0.1 0.2 0.0 0.0 0.0 0.0 0.0 0.0 0.0 0.0 0.0 0.0 0.0 0.0 0.0 0.0 0.0 0.0 0.0 0.0 0.0 0.0 0.0 0.0 0.0 0.0 0.0 0.0 0.0 0.0 0.0 0.0 0.0 0.0
0.3 0.5 0.4 0.3 0.3 0.3 0.2 0.2 0.2 0.1 0.1 0.1 0.1 0.1 0.2 0.2 0.1 0.1 0.1 0.1 0.1 0.0 0.0 0.0 0.1 0.0 0.0 0.0 0.0 0.0 0.0 0.0 0.0 0.1 0.0 0.0 0.0 0.0 0.0 0.0 0.0 0.0 0.0 0.0 0.0 0.0 0.0 0.0 0.0
0.6 1.3 2.7 1.2 0.3 0.2 1.1 2.8 0.3 0.2 0.1 0.3 0.2 0.2 0.2 0.1 0.2 0.2 0.1 0.1 0.1 0.1 0.0 0.0 0.1 0.1 0.0 0.0 0.0 0.0 0.0 0.0 0.0 0.1 0.0 0.0 0.0 0.0 0.0 0.0 0.0 0.0 0.0 0.0 0.0 0.0 0.0 0.0 0.0
6.0 7.3 4.2 2.0 0.6 0.5 1.5 2.8 0.4 0.2 0.3 0.4 0.3 0.3 0.3 0.2 0.2 0.2 0.1 0.1 0.1 0.1 0.1 0.1 0.0 0.1 0.1 0.1 0.0 0.0 0.0 0.0 0.0 0.0 0.0 0.0 0.0 0.0 0.0 0.0 0.0 0.0 0.0 0.0 0.0 0.0 0.0 0.0 0.0
7.8 5.6 3.5 2.9 1.4 1.0 2.1 1.3 0.5 0.4 0.5 0.4 0.3 0.5 0.5 0.3 0.3 0.3 0.2 0.1 0.1 0.1 0.1 0.1 0.1 0.1 0.1 0.2 0.0 0.1 0.0 0.0 0.0 0.0 0.1 0.0 0.0 0.0 0.0 0.0 0.1 0.0 0.0 0.0 0.0 0.0 0.0 0.0 0.0
3.9 4.4 3.5 2.2 1.2 1.5 2.2 1.9 0.8 0.7 0.7 0.7 0.5 0.5 0.6 0.4 0.3 0.3 0.2 0.1 0.1 0.1 0.1 0.1 0.1 0.0 0.1 0.2 0.0 0.0 0.0 0.0 0.1 0.1 0.2 0.0 0.1 0.0 0.0 0.1 0.1 0.0 0.0 0.0 0.0 0.0 0.0 0.0 0.0
4.8 5.6 3.8 2.3 1.0 2.0 3.2 2.3 1.4 1.0 1.2 1.2 1.1 1.1 0.8 0.4 0.3 0.2 0.3 0.2 0.1 0.2 0.2 0.1 0.1 0.2 0.2 0.1 0.0 0.1 0.1 0.0 0.1 0.1 0.1 0.0 0.1 0.0 0.0 0.0 0.1 0.2 0.0 0.0 0.0 0.1 0.1 0.0 0.0
5.4 5.1 3.6 3.7 2.5 1.5 2.9 5.0 2.4 1.5 1.0 1.2 1.2 1.2 1.1 0.7 0.6 0.4 0.3 0.3 0.2 0.2 0.2 0.3 0.2 0.2 0.2 0.1 0.1 0.0 0.1 0.0 0.1 0.1 0.1 0.0 0.1 0.1 0.1 0.1 0.3 0.2 0.1 0.1 0.1 0.1 0.2 0.1 0.0
6.8 2.2 1.9 3.2 4.9 7.0 5.5 10.9 4.8 2.6 1.7 1.5 1.9 2.2 1.9 1.2 0.8 0.6 0.4 0.3 0.3 0.2 0.2 0.3 0.3 0.3 0.1 0.2 0.2 0.1 0.1 0.1 0.1 0.1 0.1 0.0 0.1 0.3 0.2 0.1 0.3 0.2 0.1 0.1 0.1 0.2 0.3 0.2 0.2
3.7 1.4 1.9 3.0 6.8 9.0 5.1 9.3 7.1 2.5 3.6 3.0 2.8 3.0 3.1 2.1 1.0 0.7 0.5 0.5 0.4 0.3 0.2 0.2 0.3 0.3 0.3 0.2 0.3 0.4 0.3 0.2 0.1 0.1 0.2 0.1 0.2 0.1 0.1 0.1 0.3 0.3 0.0 0.1 0.1 0.1 0.2 0.1 0.2
2.2 2.2 2.7 4.5 10.6 18.1 7.5 8.3 8.5 7.2 6.9 4.2 2.8 2.9 2.8 2.6 1.6 1.1 0.8 0.5 0.3 0.4 0.4 0.3 0.4 0.4 0.4 0.2 0.3 0.3 0.5 0.3 0.2 0.2 0.2 0.1 0.1 0.1 0.0 0.1 0.2 0.3 0.1 0.1 0.1 0.2 0.2 0.2 0.1
4.8 17.3 27.1 28.0 26.3 15.7 4.3 6.6 9.3 6.7 5.1 4.8 4.3 3.9 3.4 3.0 3.0 1.9 1.6 1.2 0.8 0.7 0.8 0.8 0.8 0.8 0.6 0.4 0.3 0.4 0.5 0.6 0.6 0.4 0.5 0.1 0.1 0.1 0.2 0.1 0.1 0.3 0.1 0.1 0.2 0.2 0.3 0.2 0.3
7.0 12.8 20.5 18.8 13.3 7.5 4.9 7.6 8.7 4.9 4.3 3.9 4.0 3.8 3.4 3.6 3.1 3.3 2.2 1.8 0.9 0.9 0.8 0.7 0.7 1.0 1.0 0.7 0.5 0.3 0.5 0.7 0.5 0.5 0.4 0.4 0.1 0.1 0.1 0.3 0.1 0.1 0.1 0.1 0.1 0.3 0.3 0.4 0.4
9.8 11.7 7.9 14.7 10.9 8.4 7.5 6.5 5.2 2.3 2.5 3.0 3.0 3.0 3.7 4.1 3.8 3.2 3.2 3.0 1.7 1.6 0.8 0.7 0.9 0.8 0.9 1.0 0.4 0.4 0.4 0.6 0.6 0.6 0.7 0.4 0.4 0.3 0.1 0.2 0.1 0.1 0.2 0.1 0.1 0.3 0.3 0.4 0.4
4.1 4.9 10.5 18.2 16.0 11.4 7.2 6.4 8.1 6.1 5.0 4.1 3.3 3.8 4.0 4.2 4.4 4.1 3.8 3.9 2.7 1.6 1.3 0.9 0.8 0.9 0.9 1.0 1.2 1.1 1.1 0.6 0.6 0.5 0.7 0.7 0.4 0.4 0.1 0.2 0.2 0.1 0.1 0.1 0.1 0.2 0.3 0.4 0.5
6.3 8.4 11.9 14.1 12.4 12.9 9.5 8.7 7.9 6.7 5.5 5.2 4.5 4.1 4.5 4.7 4.8 5.2 4.8 4.3 3.1 1.3 1.6 1.2 1.1 0.9 0.8 0.7 1.0 1.2 1.2 1.2 0.6 0.6 0.9 0.6 0.7 0.4 0.2 0.2 0.3 0.1 0.1 0.1 0.1 0.2 0.3 0.4 0.4
3.6 6.3 9.9 16.2 12.9 9.9 10.1 9.1 4.3 3.7 3.8 4.1 4.4 4.5 4.3 4.2 4.3 4.5 4.3 4.1 3.3 2.8 1.7 1.0 1.3 1.4 0.9 0.8 0.8 1.0 1.3 1.1 1.2 1.0 0.9 0.9 0.7 0.7 0.5 0.3 0.3 0.2 0.1 0.2 0.1 0.2 0.3 0.3 0.3